2023/01/26 00:00:00,53.1,-7.0
2023/01/26 00:10:00,53.0,-7.1
2023/01/26 00:20:00,52.9,-7.1
2023/01/26 00:30:00,52.8,-7.3
2023/01/26 00:40:00,52.7,-7.1
2023/01/26 00:50:00,52.6,-7.0
2023/01/26 01:00:00,52.5,-7.4
2023/01/26 01:10:00,52.4,-7.6
2023/01/26 01:20:00,52.3,-7.5
2023/01/26 01:30:00,52.2,-7.5
2023/01/26 01:40:00,52.2,-7.8
2023/01/26 01:50:00,52.1,-7.8
2023/01/26 02:00:00,52.0,-7.7
2023/01/26 02:10:00,51.9,-7.8
2023/01/26 02:20:00,51.9,-7.8
2023/01/26 02:30:00,51.8,-8.2
2023/01/26 02:40:00,51.8,-7.9
2023/01/26 02:50:00,51.8,-8.0
2023/01/26 03:00:00,51.7,-7.1
2023/01/26 03:10:00,51.5,-7.2
2023/01/26 03:20:00,51.5,-7.4
2023/01/26 03:30:00,51.4,-7.6
2023/01/26 03:40:00,51.3,-6.9
2023/01/26 03:50:00,51.2,-6.7
2023/01/26 04:00:00,51.1,-6.6
2023/01/26 04:10:00,51.0,-6.6
2023/01/26 04:20:00,50.9,-6.3
2023/01/26 04:30:00,50.8,-6.5
2023/01/26 04:40:00,50.7,-6.1
2023/01/26 04:50:00,50.6,-5.7
2023/01/26 05:00:00,50.5,-5.8
2023/01/26 05:10:00,50.4,-5.6
2023/01/26 05:20:00,50.4,-5.2
2023/01/26 05:30:00,50.3,-5.1
2023/01/26 05:40:00,50.2,-4.8
2023/01/26 05:50:00,50.0,-4.4
2023/01/26 06:00:00,50.0,-4.4
2023/01/26 06:10:00,49.9,-4.7
2023/01/26 06:20:00,49.9,-3.9
2023/01/26 06:30:00,49.8,-3.7
2023/01/26 06:40:00,49.7,-4.1
2023/01/26 06:50:00,49.6,-4.2
2023/01/26 07:00:00,49.5,-4.4
2023/01/26 07:10:00,49.4,-4.1
2023/01/26 07:20:00,49.4,-4.5
2023/01/26 07:30:00,49.4,-4.9
2023/01/26 07:40:00,49.3,-4.8
2023/01/26 07:50:00,49.3,-4.8
2023/01/26 08:00:00,49.3,-3.9
2023/01/26 08:10:00,49.2,-2.1
2023/01/26 08:20:00,49.3, 1.6
2023/01/26 08:30:00,49.2, 2.8
2023/01/26 08:40:00,49.0, 1.2
2023/01/26 08:50:00,49.0,-1.2
2023/01/26 09:00:00,49.0,-1.1
2023/01/26 09:10:00,48.9, 3.4
2023/01/26 09:20:00,48.9, 7.4
2023/01/26 09:30:00,48.8, 8.4
2023/01/26 09:40:00,48.6, 9.2
2023/01/26 09:50:00,48.5, 9.7
2023/01/26 10:00:00,48.3, 6.5
2023/01/26 10:10:00,48.3,10.2
2023/01/26 10:20:00,48.4, 6.1
2023/01/26 10:30:00,48.2, 5.2
2023/01/26 10:40:00,48.3, 6.9
2023/01/26 10:50:00,48.1, 5.4
2023/01/26 11:00:00,48.1, 2.7
2023/01/26 11:10:00,48.0, 2.4
2023/01/26 11:20:00,47.8, 2.8
2023/01/26 11:30:00,47.8, 3.6
2023/01/26 11:40:00,47.7, 5.3
2023/01/26 11:50:00,47.7, 4.8
2023/01/26 12:00:00,47.7, 7.5
2023/01/26 12:10:00,47.7, 7.1
2023/01/26 12:20:00,47.7, 7.4
2023/01/26 12:30:00,47.7, 5.1
2023/01/26 12:40:00,47.7, 4.3
2023/01/26 12:50:00,47.0, 4.0
2023/01/26 13:00:00,45.2, 4.0
2023/01/26 13:10:00,44.8, 4.2
2023/01/26 13:20:00,44.6, 4.5
2023/01/26 13:30:00,44.4, 4.3
2023/01/26 13:40:00,44.2, 5.5
2023/01/26 13:50:00,44.0, 6.8
2023/01/26 14:00:00,43.7, 4.1
2023/01/26 14:10:00,43.4, 3.6
2023/01/26 14:20:00,43.2, 2.2
2023/01/26 14:30:00,43.0, 1.9
2023/01/26 14:40:00,42.9, 2.1
2023/01/26 14:50:00,42.8, 1.1
2023/01/26 15:00:00,42.6, 1.0
2023/01/26 15:10:00,42.5, 0.7
2023/01/26 15:20:00,42.6, 0.9
2023/01/26 15:30:00,42.5, 0.1
2023/01/26 15:40:00,42.4,-0.3
2023/01/26 15:50:00,42.3,-0.8
2023/01/26 16:00:00,42.4,-0.3
2023/01/26 16:10:00,42.5,-0.9
2023/01/26 16:20:00,42.4,-1.2
2023/01/26 16:30:00,42.4,-0.8
2023/01/26 16:40:00,42.3,-0.8
2023/01/26 16:50:00,42.2,-0.8
2023/01/26 17:00:00,42.1,-0.9
2023/01/26 17:10:00,42.2,-1.2
2023/01/26 17:20:00,42.7,-1.3
2023/01/26 17:30:00,43.2,-1.4
2023/01/26 17:40:00,43.6,-1.7
2023/01/26 17:50:00,43.9,-1.8
2023/01/26 18:00:00,44.0,-1.9
2023/01/26 18:10:00,44.1,-1.8
2023/01/26 18:20:00,44.3,-2.0
2023/01/26 18:30:00,44.3,-2.2
2023/01/26 18:40:00,44.3,-2.1
2023/01/26 18:50:00,44.6,-1.9
2023/01/26 19:00:00,44.7,-2.1
2023/01/26 19:10:00,44.6,-2.1
2023/01/26 19:20:00,44.5,-2.1
2023/01/26 19:30:00,44.4,-2.1
2023/01/26 19:40:00,44.4,-2.0
2023/01/26 19:50:00,44.3,-2.4
2023/01/26 20:00:00,44.3,-2.4
2023/01/26 20:10:00,44.2,-1.9
2023/01/26 20:20:00,44.2,-2.5
2023/01/26 20:30:00,44.2,-2.2
2023/01/26 20:40:00,44.0,-2.0
2023/01/26 20:50:00,44.0,-2.2
2023/01/26 21:00:00,43.9,-2.1
2023/01/26 21:10:00,43.8,-2.0
2023/01/26 21:20:00,43.8,-2.0
2023/01/26 21:30:00,43.7,-2.1
2023/01/26 21:40:00,43.7,-2.2
2023/01/26 21:50:00,43.6,-2.2
2023/01/26 22:00:00,43.5,-2.0
2023/01/26 22:10:00,43.4,-2.1
2023/01/26 22:20:00,43.3,-2.1
2023/01/26 22:30:00,43.2,-1.9
2023/01/26 22:40:00,43.2,-2.1
2023/01/26 22:50:00,43.1,-2.1
2023/01/26 23:00:00,43.1,-1.9
2023/01/26 23:10:00,43.1,-2.1
2023/01/26 23:20:00,43.1,-2.2
2023/01/26 23:30:00,43.1,-2.2
2023/01/26 23:40:00,43.1,-2.3
2023/01/26 23:50:00,43.0,-2.2
